Location: Saluda
(35.2377°N, 82.3468°W)
Time: 15:46:47
(UTC+00:00)

Explorer 11/Cluster Stage 4 - Pass Details

Date: 09 October 2022
Orbit: 466 x 1247 km, 28.8° (Epoch: 08 December)

Event Time Altitude Azimuth Distance (km) Brightness Sun altitude
Rises 17:44:33 0° 268° (W) 4,168 10.4 47.8°
Reaches altitude 10° 17:47:36 10° 263° (W) 3,215 10.0 47.7°
Maximum altitude 17:55:18 45° 194° (SSW) 1,593 12.3 47.3°
Drops below altitude 10° 18:02:26 10° 124° (SE) 2,977 9.8 46.9°
Sets 18:05:10 0° 118° (ESE) 3,837 10.2 46.8°
